YAOGAN-33 02 (53698 NORAD) Tracking and Keplerian Element Data

This shows tracking and keplerian element data for the satellite.

Feedback or suggestion? Click here.




ElementValue
Catalog53698
NameYAOGAN-33 02
Epoch Orbit1155
Epoch Day325.13434416
Epoch Year2022
RAAN330.2458
Inclination98.1879
Eccentricity0.0002016
Argument of Perigee78.6716
Mean Anonmoly281.4718
Mean Motion14.59165284
Decay Rate1.42E-06
L11 53698U 22106A 22325.13434416 .00000142 00000+0 39948-4 0 9995
L22 53698 98.1879 330.2458 0002016 78.6716 281.4718 14.59165284 11552



Live tracking and technical data element details for YAOGAN-33 02 (NORAD 53698). YAOGAN-33 02 can be tracked NOW for your location showing map with azimuth and elevation plus other details from your city location.







IsCatalogInMostPopularTable: catalog: 53698, numindb: 1
Update: records affected: 1



GetName: 53698 YAOGAN-33 02

Hit Count: updated at: Thu, 08 Dec 2022 09:04:52 GMT